Temp
20 20 19 19 19 19 19 19 19 18 18 18 17 17 17 17 17 17 17 17 17 17 17 17 17 17 17 17 17 17 17 17 17 17 17 18 18 18 18 18 18 18
19 19 19 19 19 19 19 19 19 18 18 18 17 17 17 17 17 17 17 16 17 17 17 17 17 17 17 17 17 17 17 17 17 17 17 17 17 18 18 18 18 18
19 19 19 19 19 19 19 19 19 18 18 18 17 17 17 17 17 17 17 17 17 17 17 17 17 17 17 17 17 17 17 17 17 17 17 17 17 17 17 18 18 18
19 19 19 19 19 19 19 19 19 18 18 18 17 17 17 17 17 17 17 17 17 17 17 17 17 17 17 17 17 17 17 17 17 17 17 17 17 17 17 17 17 18
19 19 19 19 19 19 19 19 19 18 18 18 17 17 17 17 17 17 17 17 17 17 17 17 17 17 17 17 17 17 17 17 17 17 17 17 17 17 17 17 17 18
19 19 19 19 19 19 19 19 18 18 18 17 17 17 17 17 17 17 16 16 17 17 17 17 17 17 17 17 17 17 17 17 17 17 17 17 17 17 17 17 18 18
19 19 19 19 19 19 19 18 18 18 18 17 17 17 17 17 17 17 17 16 17 17 17 17 17 17 17 17 17 17 17 17 17 17 17 17 17 17 17 17 18 18
19 19 19 19 19 18 18 18 18 18 18 17 17 17 17 17 17 17 17 17 17 17 17 17 17 17 17 17 17 17 17 18 18 18 18 18 18 17 17 17 18 18
18 19 19 19 18 18 18 18 18 18 18 17 17 17 17 17 17 17 17 17 17 17 17 17 17 17 17 17 17 17 17 17 18 18 17 18 18 17 17 17 17 18
18 18 18 19 18 18 18 18 18 18 18 17 17 17 17 17 17 17 17 17 17 17 17 17 17 17 17 17 17 17 17 17 17 17 17 17 17 17 17 17 17 17
15 16 17 17 18 18 18 18 18 18 17 17 17 18 18 18 18 18 18 18 18 18 17 17 17 17 17 17 17 17 17 17 17 17 17 17 17 17 17 17 17 17
15 15 16 16 17 18 18 18 18 17 17 17 18 18 18 18 18 18 18 18 18 18 18 18 18 17 17 17 17 17 17 17 17 17 17 17 17 17 17 17 17 16
15 16 16 16 17 18 18 17 17 17 17 17 17 18 18 18 18 18 18 18 18 18 18 18 18 18 17 17 17 17 17 17 17 17 17 17 17 16 16 16 16 16
15 16 17 17 17 17 17 17 17 17 17 17 18 18 18 18 18 18 18 18 18 18 18 18 18 18 18 17 17 17 17 17 17 17 17 16 16 16 16 16 16 16
15 17 17 16 17 17 17 17 17 17 17 17 17 18 18 18 18 18 18 18 18 18 18 18 18 18 18 17 17 17 17 17 17 17 16 16 16 16 16 16 16 16
15 16 16 16 16 16 16 17 17 17 17 17 17 17 18 18 18 18 18 18 18 18 18 18 18 18 18 18 17 17 17 17 16 16 16 16 16 16 16 16 16 16
14 14 15 15 15 15 16 16 16 16 17 17 17 17 17 17 17 18 18 17 17 17 17 18 17 17 17 17 17 17 17 17 16 16 16 16 16 16 16 16 16 15
15 14 14 15 15 15 15 14 15 16 17 16 17 17 17 17 17 17 17 17 17 17 17 17 17 17 17 17 17 17 16 16 16 16 16 16 16 16 16 15 15 15
14 14 13 13 13 13 13 13 14 16 16 16 16 17 17 17 17 17 17 17 16 16 17 17 17 17 17 17 17 16 16 16 15 15 15 15 15 15 15 15 15 15
14 14 14 13 13 13 14 14 15 16 16 16 16 16 16 16 16 16 16 16 16 16 16 16 17 17 17 16 16 16 16 15 15 15 15 15 15 15 15 15 15 14
15 15 15 15 14 15 15 16 16 15 15 15 16 16 16 16 16 16 15 15 15 15 15 16 16 16 16 16 16 16 16 15 15 15 15 15 15 15 14 14 14 14
15 15 15 15 15 15 15 15 15 15 16 16 16 16 16 15 15 15 15 15 15 15 15 15 15 15 15 15 15 15 15 15 15 14 14 14 14 14 14 14 14 13
14 14 15 15 15 15 15 15 15 15 15 15 16 16 16 16 16 16 16 15 15 15 15 14 14 14 14 15 15 15 15 14 14 14 14 14 14 14 13 13 13 13
13 13 14 14 14 14 14 14 14 14 14 15 15 15 16 16 16 16 16 16 15 15 15 14 14 14 14 14 14 14 14 14 14 14 14 14 13 13 13 13 13 14
12 12 13 13 13 13 13 14 14 14 14 14 15 15 15 15 16 16 16 16 16 15 15 15 14 14 14 14 14 14 14 13 13 13 13 13 12 13 13 13 13 14
11 11 11 12 12 12 13 13 13 14 14 14 14 14 15 15 15 15 15 16 16 16 16 15 15 14 14 14 14 14 14 13 13 13 13 12 12 13 13 13 13 14
Height
805 808 810 812 814 816 818 820 821 822 823 825 827 829 830 831 833 834 835 836 838 839 840 840 841 842 843 844 846 846 846 846 846 846 846 845 845 845 845 845 845 845
805 807 809 811 813 815 817 819 821 822 823 825 827 828 830 831 833 834 835 837 838 839 840 841 842 843 844 846 846 847 847 847 847 847 847 847 847 847 847 847 847 847
805 807 809 811 813 815 817 818 820 822 823 825 826 828 830 831 833 834 835 837 838 839 840 841 843 844 845 846 847 848 848 849 849 849 849 849 849 849 849 849 849 849
805 808 810 812 813 815 817 818 820 821 822 824 826 828 830 831 833 834 835 837 838 839 840 842 843 844 846 847 847 849 849 850 850 850 851 851 851 851 851 851 851 850
806 808 810 812 814 816 818 819 820 821 822 824 826 827 829 831 833 834 835 837 838 839 841 842 843 844 846 847 848 849 850 851 851 852 852 852 853 853 853 853 852 852
808 810 812 814 815 816 818 819 820 821 822 824 826 828 830 831 833 834 835 837 838 840 841 842 843 844 846 847 848 849 850 851 852 852 853 853 853 854 854 854 853 853
809 811 813 814 815 817 819 820 821 822 823 824 826 828 830 831 833 834 836 837 839 840 841 842 844 845 846 847 848 849 850 851 852 853 853 853 853 853 853 854 854 854
810 812 813 814 816 818 819 820 821 822 823 825 826 828 830 831 833 834 836 837 838 840 841 843 844 845 846 847 848 849 850 851 852 852 853 853 853 853 853 853 854 854
811 812 813 815 817 819 820 821 822 823 824 825 826 828 830 831 833 834 836 837 838 840 841 842 844 845 846 847 848 849 850 851 852 853 853 853 852 852 852 852 853 853
812 813 815 817 819 821 822 823 823 824 824 825 827 828 829 831 832 834 835 836 837 839 840 842 843 844 845 846 848 849 850 851 852 853 853 853 852 852 852 852 853 853
814 816 818 820 821 822 822 823 824 825 826 827 828 829 830 831 832 833 834 836 837 838 840 841 842 843 844 845 847 849 850 850 851 851 852 852 852 852 852 852 852 852
816 819 821 822 822 822 822 823 824 826 827 828 828 829 830 831 832 833 834 835 836 837 839 840 841 842 844 845 847 848 849 850 850 850 851 851 851 851 851 852 852 852
817 820 821 821 821 821 822 823 824 826 827 828 829 829 830 830 831 832 833 834 835 836 837 838 839 841 843 844 846 847 848 849 849 850 850 850 851 851 851 851 852 852
817 819 820 820 820 820 822 823 824 826 827 828 829 829 830 831 831 832 832 833 834 835 836 837 838 839 841 843 844 845 847 847 848 848 849 849 850 850 850 850 851 851
816 817 819 820 820 821 822 823 824 825 827 828 829 829 830 830 831 831 832 833 833 834 835 836 837 838 840 841 843 843 844 845 846 846 847 848 848 848 849 849 849 850
816 817 819 820 821 822 823 823 824 826 827 828 828 829 829 830 830 831 831 832 832 833 834 835 836 838 839 840 841 842 842 843 843 844 845 846 846 846 847 847 847 848
816 818 820 821 822 823 824 825 826 826 827 827 828 828 829 829 829 830 830 831 832 832 833 834 835 837 838 838 839 840 840 841 841 842 843 843 844 844 844 845 845 845
818 820 822 823 822 823 825 827 827 826 826 827 827 828 828 828 829 829 829 830 831 831 832 833 834 835 836 837 837 838 839 839 839 840 840 841 841 841 842 842 842 843
821 824 825 826 825 826 828 828 826 825 825 826 826 827 828 828 828 828 829 829 830 830 831 832 832 833 834 835 835 836 837 837 837 838 838 839 839 839 839 839 840 840
825 826 826 827 827 827 826 825 824 824 825 825 826 827 827 827 828 828 828 828 829 829 830 830 831 831 832 832 833 834 835 835 836 836 836 837 837 837 837 837 837 837
825 825 825 825 825 825 824 823 823 823 824 825 825 826 827 827 827 827 827 827 827 828 828 828 829 829 830 831 831 832 833 833 833 834 834 835 835 834 835 835 834 834
824 824 824 824 824 824 824 824 824 823 824 824 825 825 826 826 826 826 826 826 826 826 827 827 827 827 828 829 829 830 831 831 831 832 832 832 832 832 832 832 832 833
824 824 824 824 824 824 824 824 825 825 825 825 825 825 825 825 825 825 824 824 824 825 825 825 825 826 826 827 827 828 828 829 829 830 830 830 830 830 830 830 830 831
825 825 825 825 825 825 825 824 824 824 825 825 825 825 825 825 824 824 824 823 823 823 823 824 824 824 825 825 825 826 826 827 827 827 828 828 828 828 828 829 829 829
826 827 827 826 826 826 826 825 824 823 823 824 824 824 824 824 823 823 822 822 822 822 822 822 822 823 823 823 823 823 824 824 825 825 825 826 826 826 827 827 827 828
827 827 828 828 828 828 827 827 826 825 824 823 823 822 822 822 822 822 821 821 821 821 820 820 820 820 820 821 821 821 821 822 822 823 823 824 824 824 825 826 826 827
Wind_Speed
22 21 20 19 19 17 17 16 15 15 15 16 17 16 15 13 13 14 14 13 13 14 13 14 15 14 12 12 12 13 14 14 15 15 15 17 16 16 16 16 16 18
21 20 19 18 19 17 16 15 14 14 17 17 17 17 16 14 14 15 15 15 15 15 14 13 14 14 14 13 13 14 14 15 15 15 15 17 17 17 16 14 14 16
20 19 18 18 18 17 16 15 14 15 18 18 17 17 16 15 15 15 15 15 16 15 14 13 13 14 14 13 13 14 15 16 15 14 15 17 17 16 15 14 14 14
19 19 18 17 17 17 16 16 15 17 19 18 17 17 15 15 15 15 15 15 15 15 15 15 14 14 15 14 15 16 16 16 15 15 16 17 16 16 15 14 14 14
18 18 17 16 16 17 16 16 16 18 19 18 17 16 16 16 15 14 15 15 15 15 15 16 15 15 16 16 16 16 15 15 16 16 17 17 16 15 14 14 13 13
17 17 17 16 16 18 17 15 16 17 17 17 16 16 17 16 15 14 15 15 14 15 16 16 15 16 16 16 16 16 16 16 15 14 15 15 15 13 13 13 14 13
17 17 16 15 16 17 16 15 15 16 16 15 16 16 17 16 15 14 14 14 15 16 16 16 15 15 15 15 15 15 14 14 13 13 14 14 14 13 12 12 13 13
16 18 17 15 16 16 16 15 15 16 16 15 16 16 16 16 15 14 14 14 15 15 14 14 14 13 14 15 15 13 12 14 15 14 14 13 13 13 12 10 10 10
16 16 16 15 16 15 15 15 15 16 15 15 16 15 14 16 15 14 14 14 14 14 13 13 14 13 12 14 15 14 12 13 14 13 12 12 12 12 11 9 8 9
14 14 15 16 16 14 14 15 15 15 15 15 16 14 14 16 15 14 14 14 15 14 13 13 13 13 12 11 14 14 12 11 11 11 10 10 10 12 11 9 8 7
2 7 11 14 15 16 15 16 16 15 14 15 14 14 14 15 15 14 13 14 15 14 14 13 13 13 11 10 12 12 10 10 10 10 10 8 8 11 11 10 8 7
5 7 12 11 11 16 17 16 15 14 14 14 13 13 13 13 14 14 13 14 15 14 14 14 13 12 11 10 10 10 9 9 9 9 9 6 6 8 9 9 8 8
8 13 16 14 13 15 16 15 15 14 14 14 12 13 13 12 14 15 13 13 14 13 14 15 13 13 12 12 11 10 9 9 9 10 10 7 6 6 6 6 6 6
13 17 18 17 17 17 17 17 16 14 14 14 12 13 13 11 12 14 13 13 13 13 14 16 15 15 14 14 13 12 10 9 10 12 12 10 9 7 7 7 8 7
14 17 18 18 18 18 19 20 17 14 13 13 12 12 13 13 12 13 12 12 12 12 14 16 17 16 16 15 14 14 12 11 11 12 12 11 10 9 8 8 9 10
11 13 15 17 17 15 16 18 18 14 11 11 10 10 13 14 14 13 13 11 11 11 11 12 14 14 15 14 14 14 13 12 11 12 12 12 11 11 11 11 11 12
9 9 11 13 15 13 12 13 15 14 12 11 10 9 11 12 13 13 13 11 10 10 10 11 11 10 11 12 12 13 13 12 11 12 13 14 14 13 14 15 14 14
6 6 6 8 10 10 11 11 12 13 13 12 11 10 10 10 10 11 12 11 10 11 12 13 13 12 11 11 12 13 14 13 12 12 13 14 14 14 15 15 15 15
12 13 11 12 13 13 15 14 11 11 11 11 11 12 12 12 13 13 14 13 12 12 13 14 15 16 14 12 13 15 16 15 13 13 13 13 13 14 15 16 16 16
11 12 12 14 16 15 13 9 7 7 8 8 9 11 11 12 14 15 16 16 14 13 14 14 16 17 16 14 14 16 18 17 15 15 15 14 15 16 16 17 17 17
17 13 11 8 8 8 7 6 7 7 7 7 8 9 9 10 11 13 14 15 15 14 14 16 17 18 17 15 15 16 18 19 17 16 16 16 16 16 15 15 16 16
26 23 20 18 16 12 8 3 5 7 7 7 7 7 9 10 11 12 13 13 14 14 14 15 16 16 16 16 16 16 17 18 18 17 16 16 16 14 13 12 13 15
25 24 21 19 18 16 15 12 6 1 3 5 6 6 8 9 10 11 12 12 13 14 14 15 16 16 16 17 17 17 18 18 18 17 17 16 14 13 12 12 13 14
20 21 20 18 17 16 15 14 12 10 8 5 5 7 9 12 12 11 11 13 14 14 14 14 16 17 18 19 19 19 19 18 17 16 17 16 13 12 12 12 13 13
15 16 16 17 17 16 15 15 14 13 12 11 10 11 11 12 14 16 14 13 14 15 14 13 15 16 17 18 19 19 19 18 16 17 17 15 13 13 13 13 13 13
14 15 15 16 16 16 16 15 15 15 15 15 14 14 15 14 13 14 17 18 17 17 16 16 16 17 18 19 19 18 18 18 17 18 18 15 14 16 17 16 14 12
Wind_Direction
165 163 159 156 154 154 157 156 154 153 154 150 143 140 140 140 139 134 131 133 137 134 119 103 111 121 119 117 113 110 110 109 109 108 98 89 90 97 97 91 89 91
166 164 160 156 155 157 158 157 155 156 154 149 143 141 139 139 142 140 136 133 130 129 125 115 114 118 119 121 119 115 113 108 105 106 99 89 88 93 94 92 90 91
167 165 162 160 159 159 158 155 155 157 152 146 144 142 140 137 138 138 138 137 133 131 132 128 124 124 128 131 128 124 119 112 109 110 106 96 91 92 94 94 90 87
169 167 166 164 163 160 157 153 154 154 150 147 146 143 141 139 139 140 141 142 140 138 137 133 130 129 130 131 127 122 119 116 115 116 113 106 100 99 100 98 92 87
170 171 171 168 164 161 158 152 151 151 148 147 145 143 142 142 144 146 145 144 142 141 140 137 136 135 131 129 127 125 124 124 121 118 116 113 111 111 111 109 102 96
173 174 174 171 166 162 159 152 148 149 149 147 144 145 147 148 149 147 144 144 145 146 144 141 140 139 135 132 133 133 129 128 127 123 119 118 117 115 117 120 114 109
175 178 177 172 167 161 157 155 151 150 151 148 147 150 153 153 152 150 149 149 148 147 146 145 145 143 141 139 139 140 138 136 134 130 127 127 125 118 118 123 120 117
175 179 180 171 164 161 159 158 157 156 155 151 152 157 158 157 156 155 155 153 150 150 150 152 151 148 150 151 148 146 147 148 145 138 135 136 136 132 129 128 126 128
180 179 177 167 160 159 160 162 161 161 161 159 160 162 160 161 163 161 162 161 158 158 159 157 154 151 155 160 159 152 143 145 150 147 143 144 146 147 144 138 132 133
186 175 168 162 158 159 163 165 166 168 169 167 166 166 166 168 169 166 168 171 170 167 165 163 161 161 167 169 163 157 148 145 151 150 144 145 152 154 150 142 132 126
110 127 142 152 160 169 173 172 172 176 175 170 170 171 173 180 178 170 173 180 179 176 172 171 172 172 176 173 162 160 160 157 156 156 151 147 149 153 153 148 143 142
65 118 140 148 164 177 183 183 181 180 175 173 177 178 178 186 183 174 179 189 187 184 180 180 186 185 182 177 169 169 172 169 166 163 162 161 155 153 154 149 145 152
154 165 166 166 171 177 182 184 182 181 180 179 181 182 183 191 188 181 186 193 192 192 190 190 196 193 185 185 183 180 180 177 174 171 171 175 170 161 161 164 157 156
157 171 178 180 178 179 180 178 178 182 187 191 194 193 193 196 190 185 192 199 198 200 201 200 202 196 189 189 186 181 182 180 177 183 186 180 174 170 169 182 193 192
163 173 185 188 184 185 184 179 182 186 188 197 205 198 195 198 194 191 200 209 209 210 209 206 203 196 190 190 186 182 184 185 188 201 203 194 193 197 192 195 205 207
172 178 192 198 199 201 190 181 187 192 191 198 199 187 186 193 197 200 206 213 215 216 214 208 204 199 196 199 199 197 199 202 210 222 226 222 220 223 224 222 220 219
177 190 206 210 213 215 199 191 201 204 202 207 204 192 189 190 194 201 208 217 222 222 221 218 214 211 210 214 217 217 219 221 222 227 234 238 236 237 236 231 230 234
154 185 208 206 209 208 196 200 211 208 210 221 221 215 213 211 212 214 218 228 235 234 233 233 234 235 234 234 235 232 229 226 224 224 229 234 235 237 240 238 239 244
163 177 184 183 184 186 187 193 200 203 214 232 237 238 240 240 241 241 240 243 245 243 242 240 241 245 247 248 245 240 233 228 227 231 233 233 235 238 243 246 247 248
148 166 170 173 176 176 178 181 185 201 222 235 240 246 251 251 251 252 252 252 252 250 249 248 247 248 251 252 245 240 236 232 232 237 240 242 247 251 254 254 252 248
50 56 65 86 122 143 156 170 181 197 218 236 249 258 262 265 264 262 260 259 257 253 250 252 253 251 251 253 248 242 239 238 237 239 243 249 254 256 256 253 250 246
32 32 35 39 43 53 63 104 192 204 214 232 255 269 272 276 277 274 272 269 264 257 248 246 250 252 251 251 251 249 245 242 240 242 244 247 248 248 247 247 245 241
26 23 23 23 26 30 31 30 30 26 231 237 252 267 269 277 285 285 282 277 273 268 257 245 242 246 249 252 253 254 251 245 242 241 240 240 238 238 237 232 228 227
18 17 15 14 15 13 9 8 12 14 6 341 312 292 274 263 262 268 277 278 276 273 265 252 244 244 249 253 254 253 251 248 243 236 231 230 229 225 219 213 213 216
9 8 6 5 4 1 356 351 349 349 346 342 337 328 311 285 260 247 248 260 269 272 268 259 250 246 247 250 253 252 248 246 243 234 225 219 216 210 204 203 208 210
3 2 360 358 354 349 346 343 338 333 327 324 320 318 319 314 292 262 248 246 249 257 263 262 254 250 249 252 256 254 248 243 238 229 219 212 209 205 198 191 187 187